Miscellaneous Local Product
Issued by NWS Hastings, NE

Home | Current Version | Previous Version | Text Only | Print | Product List | Glossary Off
Versions: 1 2 3 4 5 6 7 8 9 10 11 12 13 14 15 16 17 18 19 20 21 22 23 24 25 26 27 28 29 30 31 32 33 34 35 36 37 38 39 40 41 42 43 44 45 46 47 48 49 50

000
AXUS43 KGID 140702
MISGRI

GID CWA HOURLY WEATHER ROUNDUP
NATIONAL WEATHER SERVICE HASTINGS NE
100 AM CST THU DEC 14 2017

NOTE: "FAIR" INDICATES FEW OR NO CLOUDS BELOW 12,000 FEET WITH NO
SIGNIFICANT WEATHER AND/OR OBSTRUCTIONS TO VISIBILITY.

...SOUTH CENTRAL NEBRASKA...

CITY           SKY/WX    TMP DP  RH WIND       PRES   REMARKS
GRAND ISLAND   CLOUDY    32  26  78 NW8       30.06R WCI  25
KEARNEY        CLOUDY    32  25  75 N7        30.07S WCI  26
HASTINGS       CLOUDY    33  25  72 N10       30.06R WCI  25
ORD            CLOUDY    33  25  72 NW9       30.05R WCI  25
YORK           CLOUDY    32  28  86 CALM      30.03S
AURORA         CLOUDY    32  26  78 NW8       30.04S WCI  25
LEXINGTON      CLOUDY    37  23  55 NW8       30.07R WCI  31
HOLDREGE       CLOUDY    32  24  71 N5        30.07S WCI  28
HEBRON         CLOUDY    32  26  77 NW6       30.05R WCI  26

...NEBRASKA PANHANDLE...

CITY           SKY/WX    TMP DP  RH WIND       PRES   REMARKS
CHADRON        CLOUDY    36  23  59 W15       30.11F WCI  27
ALLIANCE       CLOUDY    35  24  64 NW10      30.11F WCI  27
SCOTTSBLUFF    CLOUDY    33  30  88 W12       30.15F WCI  24
SIDNEY         CLOUDY    34  26  72 N23G31    30.12S WCI  22

...WESTERN AND NORTH CENTRAL NEBRASKA...

CITY           SKY/WX    TMP DP  RH WIND       PRES   REMARKS
VALENTINE      CLOUDY    35  22  58 W7        30.05F WCI  29
AINSWORTH      PTCLDY    29  26  86 W3        30.04F
ONEILL         CLOUDY    33  27  77 NW9       30.03F WCI  26
BROKEN BOW     CLOUDY    31  23  72 N7        30.05S WCI  24
IMPERIAL       CLOUDY    37  21  52 W7        30.12R WCI  32
NORTH PLATTE   CLOUDY    34  23  64 NW5       30.08F WCI  30
MCCOOK         CLOUDY    37  22  54 NW9       30.09F WCI  30

...EASTERN NEBRASKA...

CITY           SKY/WX    TMP DP  RH WIND       PRES   REMARKS
NORFOLK        CLOUDY    35  23  61 NW13      30.01R WCI  26
SO SIOUX CITY  CLOUDY    34  27  75 N9        30.01R WCI  27
TEKAMAH        CLOUDY    36  25  64 N14       30.01R WCI  27
COLUMBUS       CLOUDY    36  24  62 NW13      30.03R WCI  27
ALBION         CLOUDY    35  26  71 NW7       30.03R WCI  29
OMAHA EPPLEY   CLOUDY    37  25  61 N14       30.00R WCI  28
OFFUTT AFB     CLOUDY    38  27  65 N13       29.99S WCI  30
MILLARD        CLOUDY    39  28  64 NW7       30.00S WCI  34
LINCOLN        CLOUDY    38  24  57 N15       30.02F WCI  29
NEBRASKA CITY  CLOUDY    38  28  68 N10       29.98S WCI  31
BEATRICE       CLOUDY    34  28  77 NW8       30.01R WCI  27
FALLS CITY     CLOUDY    39  26  59 N9        29.99R WCI  33

...NORTHERN KANSAS...

CITY           SKY/WX    TMP DP  RH WIND       PRES   REMARKS
GOODLAND       CLOUDY    38  19  46 N12       30.10F WCI  30
HILL CITY      PTCLDY    39  23  52 NW10      30.09  WCI  32
NORTON         MOSUNNY   34  19  55 W6        30.08R WCI  29
PHILLIPSBURG   CLEAR     34  23  64 NW8       30.08S WCI  27
SMITH CENTER   CLEAR     30  21  69 N6        30.09R WCI  24
HAYS           PTCLDY    37  22  54 N12       30.07R WCI  29
RUSSELL        CLOUDY    34  24  67 NW10      30.05R WCI  26
CONCORDIA      PTCLDY    34  26  72 NW8       30.04R WCI  27
SALINA         CLEAR     31  23  72 NW7       30.05R WCI  24
TOPEKA         PTCLDY    34  28  79 NW7       29.98F WCI  28



USA.gov is the U.S. government's official web portal to all federal, state and local government web resources and services.